Epoch 2009 Nov. 25.0 TT = JDT 2455160.5 T 2009 Nov. 10.61664 TT MPC q 3.5876638 (2000.0) P Q z +0.0147024 Peri. 127.52389 -0.49621806 -0.83328189 +/-0.0000000 Node 344.39050 +0.16150273 +0.18724719 e 0.9472527 Incl. 64.93486 +0.85304426 -0.52017284
m1 = 10.0 + 5 logΔ + 10.0 log r